Location: Franzen
(48.6167°N, 15.3833°E)
Time: 07:09:02
(UTC+00:00)

Cosmos 1709 Rocket - Pass Details

Date: 05 August 2021
Orbit: 947 x 1002 km, 82.9° (Epoch: 18 September)

Event Time Altitude Azimuth Distance (km) Brightness Sun altitude
Exits shadow 21:41:37 28° 110° (ESE) 1,783 5.0 -22.1°
Maximum altitude 21:43:09 31° 85° (E) 1,673 5.1 -22.2°
Drops below altitude 10° 21:48:39 10° 26° (NNE) 2,787 7.0 -22.5°
Sets 21:51:27 0° 17° (NNE) 3,741 7.9 -22.7°
